This is the latest recevied weather packets stored in our database for station/object JE9BHE-13. If no packets are shown the sender has not sent any weather packets the latest 10 day(s).
| Time | Temp. | Humidity | Pressure | Rain* | Wind** | Luminosity | Snow |
|---|---|---|---|---|---|---|---|
| 1778026145 | 21.67° C | 55% | 1022.1 hPa | 0 mm | - | - | - |
| 1778024347 | 20.56° C | 56% | 1022.2 hPa | 0 mm | - | - | - |
| 1778022187 | 20.56° C | 60% | 1022.1 hPa | 0 mm | - | - | - |
| 1778020927 | 18.33° C | 61% | 1022.3 hPa | 0 mm | - | - | - |
| 1778016607 | 17.22° C | 59% | 1021.5 hPa | 0 mm | - | - | - |
| 1778016427 | 16.67° C | 59% | 1021.5 hPa | 0 mm | - | - | - |
| 1778016067 | 17.22° C | 58% | 1021.5 hPa | 0 mm | - | - | - |
| 1778015887 | 16.67° C | 57% | 1021.4 hPa | 0 mm | - | - | - |
| 1778013547 | 16.67° C | 58% | 1021.3 hPa | 0 mm | - | - | - |
| 1778012287 | 16.67° C | 56% | 1021.3 hPa | 0 mm | - | - | - |
| 1778011207 | 16.11° C | 57% | 1021.2 hPa | 0 mm | - | - | - |
| 1778009767 | 16.11° C | 56% | 1021.6 hPa | 0 mm | - | - | - |
| 1778009587 | 16.67° C | 56% | 1021.4 hPa | 0 mm | - | - | - |
| 1778007966 | 16.67° C | 56% | 1021.5 hPa | 0 mm | - | - | - |
| 1778006887 | 16.67° C | 56% | 1021.2 hPa | 0 mm | - | - | - |
| 1778006707 | 16.67° C | 57% | 1021.2 hPa | 0 mm | - | - | - |
| 1778006527 | 16.67° C | 57% | 1021.5 hPa | 0 mm | - | - | - |
| 1778003287 | 16.67° C | 57% | 1021.3 hPa | 0 mm | - | - | - |
| 1778002746 | 17.22° C | 56% | 1021.2 hPa | 0 mm | - | - | - |
| 1778001668 | 16.67° C | 57% | 1020.9 hPa | 0 mm | - | - | - |
| 1778001307 | 17.22° C | 56% | 1021.3 hPa | 0 mm | - | - | - |
| 1778000946 | 17.22° C | 56% | 1021 hPa | 0 mm | - | - | - |
| 1778000228 | 17.22° C | 56% | 1020.8 hPa | 0 mm | - | - | - |
| 1778000046 | 17.22° C | 56% | 1021 hPa | 0 mm | - | - | - |
| 1777999507 | 17.22° C | 56% | 1020.8 hPa | 0 mm | - | - | - |
* Rain latest hour (hover to see other rain measurements)
** Current wind speed in m/s (hover to see current wind gust speed)